Flag for U.S.A. Weather past 2 weeks in Tulsa, Oklahoma, U.S.A.

Now
42 °F

Overcast.


Feels Like: 38 °F
Forecast: 42 / 47 °F
Wind: 6 mph from Southeast

Location: Tulsa International Airport

Current Time: Jan 31, 2015 at 6:06:38 AM

Latest Report: Jan 31, 2015 at 4:53 AM


Visibility: 10 mi

Pressure: 30.23 "Hg

Humidity: 55%

Dew point: 27 °F

Location of TulsaLocation

Historic Weather in Tulsa — Graph

°F

Tulsa temperature yesterday

Maximum temperature yesterday: 49 °F (at 3:53 PM)
Minimum temperature yesterday: 28 °F (at 7:53 AM)
Average temperature yesterday: 39 °F

Past Weeks' High & Low Weather Summary

 TemperatureHumidityPressure
High79 °F (Jan 28, 2:53 PM)97% (Jan 20, 10:53 PM)30.58 "Hg (Jan 20, 10:53 PM)
Low23 °F (Jan 23, 5:53 AM)13% (Jan 18, 3:53 PM)29.78 "Hg (Jan 25, 1:53 AM)
Average48 °F54%30.12 "Hg
* Reported Jan 16 4:53 AM — Jan 31 4:53 AM, Tulsa, Weather by CustomWeather, © 2014

Note: Actual official high and low records may vary slightly from our data, if they occured in-between our weather recording intervals... More about our weather records

Advertising

Tulsa weather history for previous 24 hours

 ConditionsComfort  
Time TempWeatherWind HumidityBarometerVisibility
4:53 AM
Jan 31
42 °FOvercast.6 mph55%30.23 "Hg10 mi
3:53 AM43 °FOvercast.5 mph51%30.26 "Hg10 mi
2:53 AM43 °FOvercast.5 mph51%30.27 "Hg10 mi
1:53 AM43 °FOvercast.5 mph53%30.28 "Hg10 mi
12:53 AM43 °FOvercast.5 mph49%30.30 "Hg10 mi
11:53 PM
Jan 30
43 °FOvercast.5 mph49%30.33 "Hg10 mi
10:53 PM43 °FMostly cloudy.6 mph51%30.35 "Hg10 mi
9:53 PM43 °FOvercast.3 mph49%30.37 "Hg10 mi
8:53 PM44 °FOvercast.5 mph45%30.38 "Hg10 mi
7:53 PM45 °FOvercast.3 mph42%30.40 "Hg10 mi
6:53 PM47 °FOvercast.5 mph37%30.41 "Hg10 mi
5:53 PM47 °FMostly cloudy.3 mph36%30.41 "Hg10 mi
4:53 PM48 °FMore clouds than sun.3 mph34%30.42 "Hg10 mi
3:53 PM49 °FOvercast.3 mph31%30.42 "Hg10 mi
2:53 PM48 °FMostly cloudy.3 mph36%30.43 "Hg10 mi
1:53 PM47 °FBroken clouds.6 mph42%30.45 "Hg10 mi
12:53 PM42 °FMore clouds than sun.N/A53%30.49 "Hg10 mi
11:53 AM40 °FMore clouds than sun.7 mph60%30.55 "Hg10 mi
10:53 AM37 °FBroken clouds.6 mph70%30.57 "Hg10 mi
9:53 AM34 °FMostly cloudy.3 mph79%30.57 "Hg10 mi
8:53 AM31 °FPartly sunny.5 mph89%30.58 "Hg10 mi
7:53 AM28 °FBroken clouds.5 mph89%30.56 "Hg10 mi
6:53 AM29 °FOvercast.6 mph89%30.55 "Hg10 mi
Weather by CustomWeather, © 2014

See weather overviewHow to use our weather pages